Home > Weather > Stornoway > Past weeks

Flag for United Kingdom Past Weather in Stornoway, Scotland, United Kingdom — Yesterday and Last 2 Weeks

Now
57 °F

Passing clouds.


Feels Like: 57 °F
Forecast: 51 / 62 °F
Wind: No wind

Location: Stornoway

Current Time: Aug 26, 2016 at 12:59:04 AM

Latest Report: Aug 26, 2016 at 12:20 AM


Visibility: N/A

Pressure: 29.86 "Hg

Humidity: 94%

Dew Point: 55 °F

Location of StornowayLocation

Past Weather in Stornoway — Graph

°F

Stornoway Temperature Yesterday

Maximum temperature yesterday: 68 °F (at 3:20 PM)
Minimum temperature yesterday: 50 °F (at 4:50 AM)
Average temperature yesterday: 59 °F

High & Low Weather Summary for the Past Weeks

 TemperatureHumidityPressure
High72 °F (Aug 16, 1:50 PM)100% (Aug 10, 11:20 PM)30.27 "Hg (Aug 10, 11:20 PM)
Low45 °F (Aug 19, 2:50 AM)49% (Aug 25, 3:20 PM)29.39 "Hg (Aug 20, 6:20 AM)
Average58 °F87%29.92 "Hg
* Reported Aug 10 11:20 PM — Aug 25 11:20 PM, Stornoway, Weather by CustomWeather, © 2016

Note: Actual official high and low records may vary slightly from our data, if they occured in-between our weather recording intervals... More about our weather records

Advertising

Stornoway Weather History for the Previous 24 Hours

Scroll right to see more
 ConditionsComfort  
Time TempWeatherWind HumidityBarometerVisibility
11:20 PM
Thu, Aug 25
52 °FCool.No wind94%29.86 "HgN/A
10:50 PM52 °FCool.3 mph94%29.89 "HgN/A
10:20 PM52 °FPassing clouds.2 mph94%29.89 "HgN/A
9:50 PM52 °FPassing clouds.3 mph94%29.89 "HgN/A
9:20 PM54 °FPassing clouds.2 mph88%29.92 "HgN/A
8:50 PM57 °FPassing clouds.2 mph82%29.92 "HgN/A
8:20 PM57 °FPassing clouds.3 mph88%29.92 "HgN/A
7:50 PM59 °FPassing clouds.5 mph88%29.92 "HgN/A
7:20 PM61 °FPassing clouds.6 mph83%29.92 "HgN/A
6:50 PM64 °FPassing clouds.3 mph64%29.95 "HgN/A
6:20 PM64 °FPassing clouds.5 mph64%29.95 "HgN/A
5:50 PM64 °FPassing clouds.3 mph78%29.95 "HgN/A
5:20 PM64 °FPassing clouds.5 mph73%29.95 "HgN/A
4:50 PM66 °FPassing clouds.6 mph64%29.98 "HgN/A
4:20 PM66 °FPassing clouds.5 mph52%29.98 "HgN/A
3:50 PM68 °FPassing clouds.3 mph53%29.98 "HgN/A
3:20 PM68 °FPassing clouds.3 mph49%29.98 "HgN/A
2:50 PM64 °FPassing clouds.2 mph64%30.01 "HgN/A
2:20 PM64 °FPassing clouds.2 mph60%30.01 "HgN/A
1:50 PM63 °FPassing clouds.5 mph68%30.01 "HgN/A
1:20 PM63 °FPassing clouds.3 mph73%30.01 "HgN/A
12:50 PM63 °FPassing clouds.5 mph73%30.01 "HgN/A
12:20 PM64 °FPassing clouds.5 mph64%30.04 "HgN/A
11:50 AM64 °FPassing clouds.5 mph68%30.04 "HgN/A
11:20 AM63 °FScattered clouds.5 mph73%30.04 "HgN/A
10:50 AM63 °FPassing clouds.6 mph73%30.04 "HgN/A
10:20 AM61 °FPassing clouds.7 mph77%30.07 "HgN/A
9:50 AM61 °FPassing clouds.3 mph77%30.07 "HgN/A
9:20 AM57 °FPassing clouds.3 mph88%30.07 "HgN/A
8:50 AM59 °FScattered clouds.5 mph82%30.07 "HgN/A
8:20 AM59 °FScattered clouds.5 mph82%30.07 "HgN/A
7:50 AM57 °FScattered clouds.3 mph94%30.07 "HgN/A
7:20 AM55 °FScattered clouds.5 mph94%30.07 "HgN/A
6:50 AM52 °FPassing clouds.3 mph100%30.07 "HgN/A
6:20 AM52 °FPassing clouds.5 mph94%30.07 "HgN/A
5:50 AM52 °FCool.7 mph100%30.07 "HgN/A
5:20 AM50 °FCool.2 mph94%30.07 "HgN/A
4:50 AM50 °FCool.2 mph94%30.09 "HgN/A
4:20 AM52 °FPassing clouds.2 mph88%30.09 "HgN/A
3:50 AM54 °FPassing clouds.No wind94%30.09 "HgN/A
3:20 AM55 °FOvercast.5 mph94%30.09 "HgN/A
2:50 AM57 °FPartly cloudy.5 mph88%30.12 "HgN/A
2:20 AM57 °FPassing clouds.5 mph88%30.12 "HgN/A
1:50 AM57 °FPassing clouds.6 mph88%30.12 "HgN/A
1:20 AM57 °FPartly cloudy.3 mph88%30.12 "HgN/A
12:50 AM54 °FPassing clouds.No wind94%30.12 "HgN/A
12:20 AM55 °FPassing clouds.5 mph88%30.12 "HgN/A
Weather by CustomWeather, © 2016

See weather overviewHow to use our weather pages